Meath Environmental Platform

Observations

Time Sensor AQI SAQ Temp °C Hum % Pres Pa CO μg/m³ H₂S μg/m³ NO μg/m³ NO₂ μg/m³ O₃ μg/m³ SO₂ μg/m³ CO₂e PPM VOC PPM PM1 μg/m³ PM2.5 μg/m³ PM4 μg/m³ PM10 μg/m³ TPS µm
Thursday 13 August 2026
11:52 Trim Market St 2 31.4 47 62,452 0 0 0.59 16.11 53.63 0 0 3.1 3.71
11:52 Trim Patrick St 2 30.3 50 69,567 0 3.22 0.65 12.94 59.38 15.77 2 7.18 7.9
11:51 Trim Market St 2 31.3 47 62,590 0 0 0.59 13.14 62.04 0 0.71 3.1 3.42
11:51 Trim Patrick St 2 30.2 50 69,569 0 1.73 0.59 13.42 63.55 15.91 2.86 7.95 8.75
11:50 Trim Market St 2 31.3 47 62,513 0 0 0.58 11.86 56.67 0 0 3.11 3.42
11:50 Trim Patrick St 2 30.2 50 69,543 0 2.05 0.62 13.37 63.67 16.02 2 6.43 7.07
11:49 Trim Market St 2 31.3 47 62,440 0 0 0.52 12.04 57.95 0 0.71 2.59 2.84
11:49 Trim Patrick St 2 30.1 50 69,539 0 1.85 0.66 13.27 61.8 16.04 2 6.43 7.08
11:48 Trim Patrick St 2 30.1 50 69,534 0 0 0.66 12.78 64.97 16.13 2.86 7.2 7.92
11:47 Trim Market St 2 31.2 47 62,102 0 0 0.51 10.26 45.75 0 0.71 3.61 3.72
11:47 Trim Patrick St 2 30.1 50 69,532 0 0 0.67 12.36 65.08 16.29 2.86 7.18 7.9
11:46 Trim Market St 2 31.2 47 61,818 0 0 0.51 12.67 65.99 0 0 2.05 2.26
11:46 Trim Patrick St 2 30.1 50 69,525 0 0 0.72 12.8 67.52 16.23 2 7.19 7.91
11:45 Trim Patrick St 2 30.2 50 69,549 0 0 0.67 12.36 63.9 15.39 2 7.21 7.93
11:44 Trim Patrick St 2 30.1 50 69,549 0 0 0.65 11.8 60.55 15.7 2 7.21 7.93
11:43 Trim Patrick St 2 30.2 50 69,523 0 0 0.65 10.61 61.52 15.53 2 6.42 7.06
11:42 Trim Market St 2 31.2 48 60,781 0 0 0.51 12.63 55.15 0 0.71 2.55 2.8
11:42 Trim Patrick St 2 30.2 50 69,553 0 0 0.64 12.93 64.13 16.14 2 7.2 7.92
11:41 Trim Market St 2 31.1 48 60,696 0 0 0.48 12.48 51.8 0 1.43 3.57 4.5
11:41 Trim Patrick St 2 30.1 50 69,549 0 0 0.65 12.75 63.33 15.53 2.86 7.2 7.92